TimeEDT,TemperatureF,Dew PointF,Humidity,Sea Level PressureIn,VisibilityMPH,Wind Direction,Wind SpeedMPH,Gust SpeedMPH,PrecipitationIn,Events,Conditions,WindDirDegrees,DateUTC
12:15 AM,53.6,37.4,54,30.17,10.0,SE,4.6,-,N/A,,Clear,140,2013-03-11 04:15:00
12:35 AM,53.6,37.4,54,30.17,10.0,SE,5.8,-,N/A,,Clear,140,2013-03-11 04:35:00
12:55 AM,55.4,37.4,51,30.17,10.0,SE,5.8,-,N/A,,Clear,140,2013-03-11 04:55:00
1:15 AM,53.6,37.4,54,30.17,10.0,SE,5.8,-,N/A,,Clear,140,2013-03-11 05:15:00
1:35 AM,53.6,37.4,54,30.17,10.0,SSE,3.5,-,N/A,,Clear,150,2013-03-11 05:35:00
1:55 AM,53.6,39.2,58,30.17,10.0,SSE,4.6,-,N/A,,Clear,150,2013-03-11 05:55:00
2:15 AM,51.8,39.2,62,30.16,10.0,SE,5.8,-,N/A,,Clear,140,2013-03-11 06:15:00
2:35 AM,51.8,41.0,67,30.15,10.0,SE,4.6,-,N/A,,Clear,140,2013-03-11 06:35:00
3:15 AM,51.8,41.0,67,30.15,10.0,Calm,Calm,-,N/A,,Clear,0,2013-03-11 07:15:00
3:35 AM,51.8,41.0,67,30.14,10.0,Calm,Calm,-,N/A,,Clear,0,2013-03-11 07:35:00
3:55 AM,50.0,41.0,71,30.13,10.0,Calm,Calm,-,N/A,,Clear,0,2013-03-11 07:55:00
4:15 AM,50.0,41.0,71,30.12,10.0,Calm,Calm,-,N/A,,Clear,0,2013-03-11 08:15:00
4:35 AM,50.0,41.0,71,30.12,10.0,Calm,Calm,-,N/A,,Clear,0,2013-03-11 08:35:00
4:55 AM,48.2,41.0,76,30.12,10.0,Calm,Calm,-,N/A,,Clear,0,2013-03-11 08:55:00
5:15 AM,48.2,41.0,76,30.10,10.0,Calm,Calm,-,N/A,,Clear,0,2013-03-11 09:15:00
5:35 AM,46.4,41.0,81,30.10,10.0,Calm,Calm,-,N/A,,Clear,0,2013-03-11 09:35:00
5:55 AM,46.4,41.0,81,30.10,10.0,Calm,Calm,-,N/A,,Clear,0,2013-03-11 09:55:00
6:15 AM,46.4,41.0,81,30.10,10.0,Calm,Calm,-,N/A,,Clear,0,2013-03-11 10:15:00
6:55 AM,46.4,41.0,81,30.09,10.0,Calm,Calm,-,N/A,,Clear,0,2013-03-11 10:55:00
7:15 AM,46.4,41.0,81,30.10,10.0,Calm,Calm,-,N/A,,Clear,0,2013-03-11 11:15:00
7:35 AM,44.6,41.0,87,30.11,10.0,Calm,Calm,-,N/A,,Scattered Clouds,0,2013-03-11 11:35:00
8:15 AM,46.4,42.8,87,30.10,10.0,Calm,Calm,-,N/A,,Overcast,0,2013-03-11 12:15:00
8:35 AM,48.2,42.8,82,30.11,10.0,Calm,Calm,-,N/A,,Overcast,0,2013-03-11 12:35:00
8:55 AM,48.2,42.8,82,30.11,10.0,Calm,Calm,-,N/A,,Overcast,0,2013-03-11 12:55:00
9:15 AM,50.0,41.0,71,30.12,10.0,Calm,Calm,-,N/A,,Overcast,0,2013-03-11 13:15:00
9:35 AM,50.0,39.2,66,30.11,10.0,ESE,3.5,-,N/A,,Overcast,120,2013-03-11 13:35:00
9:55 AM,51.8,39.2,62,30.10,10.0,SE,3.5,-,N/A,,Overcast,140,2013-03-11 13:55:00
10:15 AM,53.6,41.0,62,30.10,10.0,SE,6.9,-,N/A,,Overcast,130,2013-03-11 14:15:00
10:35 AM,53.6,42.8,67,30.10,10.0,SSE,5.8,-,N/A,,Overcast,150,2013-03-11 14:35:00
10:55 AM,57.2,44.6,63,30.08,10.0,SE,4.6,-,N/A,,Overcast,140,2013-03-11 14:55:00
11:15 AM,59.0,46.4,63,30.07,10.0,South,8.1,-,N/A,,Overcast,170,2013-03-11 15:15:00
11:35 AM,59.0,46.4,63,30.07,10.0,South,6.9,-,N/A,,Overcast,180,2013-03-11 15:35:00
11:55 AM,59.0,46.4,63,30.06,10.0,South,4.6,-,N/A,,Overcast,170,2013-03-11 15:55:00
12:15 PM,59.0,48.2,67,30.05,10.0,SE,4.6,-,N/A,,Overcast,140,2013-03-11 16:15:00
12:35 PM,60.8,50.0,68,30.05,10.0,SSE,8.1,-,N/A,,Overcast,160,2013-03-11 16:35:00
12:55 PM,62.6,50.0,63,30.04,10.0,South,8.1,-,N/A,,Overcast,190,2013-03-11 16:55:00
1:15 PM,64.4,50.0,59,30.04,10.0,South,8.1,-,N/A,,Overcast,170,2013-03-11 17:15:00
1:35 PM,66.2,51.8,60,30.02,10.0,SSE,12.7,18.4,N/A,,Mostly Cloudy,160,2013-03-11 17:35:00
1:55 PM,68.0,51.8,56,30.00,10.0,SSW,11.5,24.2,N/A,,Mostly Cloudy,200,2013-03-11 17:55:00
2:15 PM,68.0,51.8,56,29.98,10.0,South,10.4,20.7,N/A,,Mostly Cloudy,190,2013-03-11 18:15:00
2:35 PM,68.0,51.8,56,29.96,10.0,South,8.1,17.3,N/A,,Scattered Clouds,190,2013-03-11 18:35:00
2:55 PM,69.8,50.0,49,29.94,10.0,South,10.4,18.4,N/A,,Scattered Clouds,170,2013-03-11 18:55:00
3:15 PM,69.8,50.0,49,29.93,10.0,South,9.2,19.6,N/A,,Mostly Cloudy,170,2013-03-11 19:15:00
3:35 PM,69.8,50.0,49,29.91,10.0,South,10.4,-,N/A,,Mostly Cloudy,180,2013-03-11 19:35:00
4:15 PM,68.0,50.0,52,29.91,10.0,South,9.2,17.3,N/A,,Scattered Clouds,180,2013-03-11 20:15:00
4:35 PM,68.0,50.0,52,29.90,10.0,South,10.4,16.1,N/A,,Scattered Clouds,180,2013-03-11 20:35:00
4:55 PM,68.0,48.2,49,29.89,10.0,South,10.4,19.6,N/A,,Scattered Clouds,170,2013-03-11 20:55:00
5:15 PM,68.0,50.0,52,29.88,10.0,South,8.1,-,N/A,,Scattered Clouds,170,2013-03-11 21:15:00
5:35 PM,68.0,50.0,52,29.88,10.0,SSE,8.1,-,N/A,,Mostly Cloudy,160,2013-03-11 21:35:00
5:55 PM,68.0,50.0,52,29.87,10.0,SSE,9.2,18.4,N/A,,Overcast,150,2013-03-11 21:55:00
6:15 PM,68.0,50.0,52,29.86,10.0,SSE,11.5,-,N/A,,Overcast,150,2013-03-11 22:15:00
6:35 PM,68.0,50.0,52,29.86,10.0,SSE,8.1,-,N/A,,Mostly Cloudy,160,2013-03-11 22:35:00
7:15 PM,66.2,50.0,56,29.87,10.0,South,5.8,-,N/A,,Scattered Clouds,190,2013-03-11 23:15:00
7:35 PM,66.2,50.0,56,29.87,10.0,SSE,4.6,-,N/A,,Mostly Cloudy,160,2013-03-11 23:35:00
7:55 PM,64.4,51.8,64,29.85,10.0,SE,8.1,-,N/A,Rain,Rain,140,2013-03-11 23:55:00
8:15 PM,62.6,51.8,68,29.85,10.0,SE,6.9,-,N/A,Rain,Light Rain,140,2013-03-12 00:15:00
8:35 PM,60.8,53.6,77,29.87,10.0,SSE,3.5,-,0.01,Rain,Light Rain,160,2013-03-12 00:35:00
8:55 PM,60.8,55.4,82,29.86,10.0,Calm,Calm,-,0.02,Rain,Light Rain,0,2013-03-12 00:55:00
9:15 PM,60.8,55.4,82,29.86,10.0,Calm,Calm,-,0.01,Rain,Light Rain,0,2013-03-12 01:15:00
9:35 PM,59.0,57.2,94,29.86,7.0,Calm,Calm,-,0.03,Rain,Rain,0,2013-03-12 01:35:00
9:55 PM,59.0,59.0,100,29.86,7.0,Calm,Calm,-,0.05,Rain,Rain,0,2013-03-12 01:55:00
10:15 PM,59.0,59.0,100,29.86,7.0,West,3.5,-,0.01,Rain,Rain,260,2013-03-12 02:15:00
10:35 PM,59.0,59.0,100,29.87,7.0,WNW,8.1,-,0.03,Rain,Rain,290,2013-03-12 02:35:00
11:15 PM,59.0,59.0,100,29.86,4.0,Calm,Calm,-,0.02,Rain,Rain,0,2013-03-12 03:15:00
11:35 PM,59.0,59.0,100,29.86,7.0,Calm,Calm,-,0.03,Rain,Rain,0,2013-03-12 03:35:00
11:55 PM,57.2,57.2,100,29.86,3.0,Calm,Calm,-,0.04,Rain,Heavy Rain,0,2013-03-12 03:55:00